Date,TemperatureHighF,TemperatureAvgF,TemperatureLowF,DewpointHighF,DewpointAvgF,DewpointLowF,HumidityHigh,HumidityAvg,HumidityLow,PressureMaxIn,PressureMinIn,WindSpeedMaxMPH,WindSpeedAvgMPH,GustSpeedMaxMPH,PrecipitationSumIn
2013-1-1,58.2,42.6,32.1,41.0,33.6,27.2,96,75,31,30.30,30.19,11,1,11,0.01
2013-1-2,56.4,40.7,29.0,40.4,34.1,27.4,95,79,52,30.26,30.13,7,1,12,0.00
2013-1-3,57.3,41.0,28.0,41.4,34.6,26.7,100,80,50,30.29,30.18,5,1,8,0.01
2013-1-4,58.3,43.7,32.1,43.1,37.6,30.7,96,81,56,30.31,30.18,7,1,8,0.00
2013-1-5,47.0,41.2,32.5,45.4,39.5,31.2,97,94,84,30.27,30.06,7,1,10,0.39
2013-1-6,56.4,47.3,38.1,47.1,43.8,36.5,97,89,66,30.21,30.07,8,2,11,0.02
2013-1-7,62.4,46.4,33.9,52.1,42.3,32.8,100,87,63,30.27,30.15,6,1,7,0.01
2013-1-8,62.2,47.1,37.2,51.3,43.7,36.1,98,89,64,30.26,30.13,6,1,13,0.01
2013-1-9,51.7,44.4,38.2,49.4,41.7,34.6,98,90,72,30.16,29.99,15,2,22,0.02
2013-1-10,51.1,41.7,33.2,37.5,33.4,31.4,95,74,48,30.22,30.09,14,3,18,0.01
2013-1-11,54.6,43.1,36.7,41.1,35.3,31.0,83,74,55,30.27,30.12,9,2,13,0.00
2013-1-12,52.3,41.3,30.8,36.6,31.9,23.9,94,72,35,30.27,30.14,6,1,9,0.00
2013-1-13,52.8,38.1,25.2,35.9,29.5,13.7,95,75,28,30.29,30.19,16,1,20,0.01
2013-1-14,56.7,43.3,30.5,37.2,26.4,11.3,84,55,24,30.41,30.24,15,2,23,0.00
2013-1-15,54.8,40.1,29.8,36.7,32.3,28.0,94,76,45,30.50,30.40,6,1,9,0.00
2013-1-16,60.2,42.1,28.9,40.7,33.9,27.0,95,76,41,30.46,30.28,4,1,7,0.00
2013-1-17,62.9,42.7,27.2,44.2,35.4,25.7,96,78,43,30.30,30.16,7,0,8,0.01
2013-1-18,63.7,43.9,27.8,45.2,36.0,26.3,95,77,47,30.26,30.13,5,1,7,0.01
2013-1-19,63.7,43.7,28.7,43.6,36.2,27.0,95,78,45,30.27,30.16,5,0,8,0.00
2013-1-20,63.6,45.1,29.4,43.1,35.6,27.6,95,73,41,30.25,30.12,6,1,9,0.01
2013-1-21,64.3,44.7,28.9,45.3,36.8,27.1,95,77,47,30.20,30.08,8,1,9,0.00
2013-1-22,62.8,46.4,30.9,45.0,38.4,29.1,95,76,48,30.13,29.99,8,1,12,0.01
2013-1-23,52.1,48.5,45.9,48.4,45.3,41.2,97,89,75,30.10,29.96,7,1,11,0.42
2013-1-24,60.3,52.7,48.0,54.5,50.5,47.1,98,92,78,30.19,30.08,6,1,12,0.01
2013-1-25,63.2,54.7,49.1,56.2,51.7,47.7,98,90,73,30.20,30.04,5,1,7,0.00
2013-1-26,59.6,49.7,42.5,48.4,42.7,36.0,98,79,46,30.08,29.97,13,2,17,0.01
2013-1-27,56.6,45.8,34.8,37.8,35.3,31.8,92,69,41,30.19,30.07,12,3,14,0.00
2013-1-28,57.9,48.7,38.8,40.6,38.2,34.6,88,68,49,30.30,30.17,17,4,23,0.00
2013-1-29,64.0,51.3,42.7,49.2,41.0,37.0,85,69,46,30.37,30.26,11,2,17,0.00
2013-1-30,68.4,52.6,40.5,50.3,43.4,37.8,92,73,45,30.35,30.25,11,2,14,0.00
2013-1-31,67.4,49.1,34.8,49.5,42.3,33.1,100,80,50,30.31,30.18,8,1,9,0.00
2013-2-1,68.8,49.8,34.7,51.1,42.6,33.4,97,79,50,30.23,30.11,6,1,9,0.01
2013-2-2,59.6,48.3,41.9,51.3,45.2,39.7,97,90,71,30.32,30.22,7,1,12,0.00
2013-2-3,60.6,48.6,39.3,49.8,44.7,37.7,97,87,65,30.26,30.14,9,2,11,0.01
2013-2-4,54.2,45.1,40.1,50.0,43.3,39.0,98,94,82,30.19,30.07,9,2,11,0.01
2013-2-5,62.3,49.7,44.4,49.6,45.2,40.1,100,85,61,30.17,30.05,13,2,16,0.01
2013-2-6,60.3,47.0,35.5,46.7,40.2,33.6,95,79,48,30.22,30.10,9,2,12,0.00
2013-2-7,55.4,47.6,40.0,46.7,40.8,33.8,96,80,45,30.16,30.00,12,3,17,0.20
2013-2-8,59.4,45.4,34.3,40.5,36.5,30.0,100,74,34,30.04,29.93,12,3,18,0.01
2013-2-9,62.2,45.6,32.6,37.4,32.6,25.6,91,64,25,30.11,30.01,11,2,14,0.00
2013-2-10,64.5,44.8,31.1,46.7,36.4,28.5,92,75,38,30.14,30.01,8,1,11,0.00
2013-2-11,66.9,48.9,35.2,44.2,38.3,29.7,93,72,26,30.24,30.09,9,2,16,0.00
2013-2-12,62.0,48.6,37.7,48.2,43.4,36.6,98,84,56,30.38,30.24,8,2,10,0.01
2013-2-13,64.7,46.8,32.8,49.4,40.7,31.2,96,82,50,30.36,30.21,9,1,11,0.00
2013-2-14,69.2,50.3,36.0,52.3,42.6,34.7,97,78,48,30.27,30.15,10,2,12,0.01
2013-2-15,72.2,53.0,37.3,48.8,42.7,35.3,95,72,40,30.28,30.21,7,1,11,0.00
2013-2-16,71.5,51.8,39.9,50.3,44.1,37.9,94,78,37,30.26,30.05,8,1,12,0.01
2013-2-17,63.4,47.9,37.3,48.3,41.5,36.2,98,81,44,30.07,29.97,9,2,13,0.01
2013-2-18,53.9,44.7,37.2,44.6,40.2,35.6,97,85,67,30.04,29.92,10,2,15,0.01
2013-2-19,51.3,43.8,37.4,42.9,37.2,31.6,95,79,50,29.97,29.74,15,4,22,0.21
2013-2-20,60.3,45.6,30.5,38.0,34.2,28.4,94,68,35,30.07,29.87,11,3,17,0.00
2013-2-21,63.6,49.8,39.9,42.3,36.6,27.7,85,64,28,30.18,30.06,12,3,16,0.00
2013-2-22,62.6,49.0,37.0,47.0,40.8,34.2,92,76,41,30.26,30.16,10,2,13,0.00
2013-2-23,60.0,50.8,45.4,44.8,35.7,28.8,91,59,32,30.29,30.17,12,5,16,0.00
2013-2-24,67.5,50.6,40.0,42.4,35.3,22.7,86,59,19,30.28,30.15,15,4,17,0.00
2013-2-25,68.8,48.9,35.1,47.2,37.6,18.8,93,71,15,30.28,30.15,14,2,16,0.00
2013-2-26,70.3,51.4,38.9,42.3,35.7,26.2,88,59,20,30.23,30.13,11,3,12,0.00
2013-2-27,68.1,50.1,33.5,47.1,39.9,31.4,100,72,33,30.36,30.21,9,2,12,0.01
2013-2-28,68.2,55.6,46.3,55.9,49.5,44.0,93,81,61,30.45,30.36,9,2,13,0.00
2013-3-1,74.0,54.5,40.7,54.4,46.9,39.3,100,79,46,30.44,30.24,10,2,13,0.01
2013-3-2,70.8,54.9,45.2,56.7,48.8,43.0,94,81,55,30.25,30.06,8,2,10,0.00
2013-3-3,64.4,52.9,47.5,52.2,48.3,45.2,96,85,62,30.10,30.02,11,4,16,0.00
2013-3-4,57.3,47.9,42.0,48.8,44.2,39.6,95,87,68,30.16,30.06,14,2,14,0.00
2013-3-5,54.1,46.5,34.9,47.9,42.1,33.0,96,85,72,30.08,29.78,18,5,26,0.32
2013-3-6,55.6,49.6,40.8,48.7,42.8,38.1,93,78,56,30.07,29.79,25,6,37,0.08
2013-3-7,55.9,46.2,36.6,45.0,39.4,34.6,96,79,46,30.01,29.87,8,2,18,0.01
2013-3-8,45.3,41.1,37.7,40.3,37.8,35.3,91,88,81,29.88,29.86,3,1,5,0.00
2013-3-13,79.8,65.6,48.5,59.4,53.4,45.0,96,67,44,30.18,30.06,8,3,11,0.01
2013-3-14,68.8,53.9,45.2,58.0,48.6,43.6,96,83,62,30.17,30.09,12,2,13,0.00
2013-3-15,71.7,54.5,42.3,56.4,47.8,40.5,95,80,46,30.14,30.02,10,2,13,0.01
2013-3-16,75.1,57.3,40.0,55.1,43.4,33.6,96,66,22,30.12,30.01,17,4,22,0.00
2013-3-17,69.2,55.4,46.7,48.0,42.3,33.4,84,63,27,30.15,30.03,12,4,17,0.00
2013-3-18,67.6,51.8,40.3,50.5,44.0,38.4,94,77,47,30.12,30.01,8,2,14,0.00
2013-3-19,62.5,51.9,45.3,50.1,44.7,40.2,91,78,53,30.14,30.06,8,1,10,0.09
2013-3-20,60.2,51.8,46.6,56.1,49.6,43.8,100,93,81,30.14,30.06,13,2,16,0.40
2013-3-21,65.9,52.6,38.8,48.1,42.6,36.9,95,71,43,30.14,30.01,12,3,15,0.01
2013-3-22,68.5,54.7,43.9,45.2,35.9,26.7,75,53,21,30.14,30.03,11,5,14,0.00
2013-3-23,69.7,52.9,39.0,46.4,39.3,32.5,89,64,28,30.15,30.04,10,2,14,0.00
2013-3-24,67.9,51.8,40.0,51.5,44.1,38.0,94,77,46,30.10,29.97,11,2,13,0.00
2013-3-25,58.4,48.6,41.8,48.6,44.0,40.1,96,85,66,30.04,29.94,15,3,15,0.00
2013-3-26,62.5,50.7,41.8,50.2,45.4,39.9,96,83,61,30.01,29.94,11,3,14,0.01
2013-3-27,61.2,52.0,45.8,53.7,48.3,43.3,95,88,71,30.02,29.95,14,2,15,0.00
2013-3-28,64.1,54.9,49.2,55.4,51.2,47.5,96,88,72,30.09,30.01,6,2,9,0.05
2013-3-29,76.3,57.9,48.9,59.4,51.9,48.0,98,83,44,30.10,30.01,12,2,16,0.01
2013-3-30,67.4,56.0,50.1,56.6,51.7,48.5,95,86,63,30.08,29.99,12,2,16,0.06
2013-3-31,62.3,55.8,52.8,55.6,53.4,51.4,96,92,75,30.07,30.00,10,2,16,0.38
2013-4-1,64.3,56.0,50.9,55.6,52.1,48.6,98,88,68,30.15,30.05,10,2,14,0.02
2013-4-2,64.7,52.2,45.3,56.6,49.0,43.7,98,90,70,30.20,30.10,9,2,13,0.00
2013-4-3,73.7,53.4,46.3,59.4,49.6,45.2,98,88,54,30.15,29.99,12,3,16,0.00
2013-4-4,58.4,53.7,48.9,56.6,52.4,47.5,100,96,91,30.12,29.99,14,3,15,0.91
2013-4-5,63.6,56.5,52.5,55.3,52.8,50.7,98,88,69,30.19,30.11,13,3,16,0.01
2013-4-6,66.5,56.7,52.4,57.3,53.0,50.3,96,88,70,30.19,30.12,11,3,17,0.00
2013-4-7,61.9,55.1,50.1,56.2,50.5,45.5,97,85,65,30.18,29.82,19,5,23,0.07
2013-4-8,69.2,56.0,46.8,45.3,38.0,33.6,85,54,29,30.06,29.81,22,8,27,0.00
2013-4-9,78.7,62.7,47.6,44.4,40.4,32.1,77,49,20,30.13,30.03,13,5,16,0.00
2013-4-10,84.9,66.4,50.2,62.1,49.6,42.3,83,58,23,30.18,30.02,13,3,19,0.00
2013-4-11,77.9,61.1,50.1,55.6,48.1,44.3,84,64,34,30.06,29.83,12,3,17,0.00
2013-4-12,71.0,55.6,44.1,55.7,47.5,41.2,91,76,51,29.92,29.82,10,3,15,0.00
2013-4-13,75.8,59.2,44.7,55.1,44.9,38.0,91,62,34,29.91,29.79,13,4,22,0.00
2013-4-14,71.8,57.4,44.3,47.3,39.2,29.6,85,53,25,29.93,29.84,21,5,27,0.00
2013-4-15,61.0,51.2,41.8,43.4,36.3,28.8,92,61,33,29.98,29.85,18,6,28,0.01
2013-4-16,69.7,55.6,42.7,40.3,33.4,25.4,71,47,19,30.18,29.98,14,5,18,0.00
2013-4-17,72.8,58.9,43.9,46.9,35.4,19.2,77,46,14,30.28,30.17,14,4,21,0.00
2013-4-18,77.2,60.3,46.3,49.8,42.3,36.8,81,56,24,30.26,30.18,14,3,15,0.00
2013-4-19,79.8,61.5,45.1,57.5,47.9,42.0,92,65,31,30.24,30.07,17,3,25,0.00
2013-4-20,78.1,63.1,49.6,53.7,46.3,41.9,84,57,29,30.11,29.97,12,4,16,0.00
2013-4-21,83.0,63.3,46.0,58.4,49.2,42.9,91,64,32,30.03,29.91,10,2,11,0.00
2013-4-22,88.5,67.4,50.9,58.6,50.4,40.1,86,59,19,29.97,29.84,13,2,16,0.00
2013-4-23,81.9,64.7,46.7,53.9,38.1,15.9,93,47,11,29.92,29.86,11,4,18,0.00
2013-4-24,59.8,51.3,45.2,50.6,46.5,43.7,96,84,69,29.97,29.85,14,4,15,0.00
2013-4-25,62.2,54.3,50.0,51.1,47.6,45.6,88,79,65,30.13,29.97,14,3,16,0.00
2013-4-26,65.0,52.7,47.1,54.4,48.3,44.3,93,86,67,30.24,30.13,11,2,13,0.00
2013-4-29,85.6,78.3,63.4,61.6,54.7,47.5,57,45,32,29.89,29.75,13,4,18,0.00
2013-4-30,88.2,70.1,50.1,50.1,39.8,10.1,82,41,8,29.87,29.77,14,3,20,0.00
2013-5-1,89.1,71.8,55.8,49.8,26.3,10.3,53,22,6,30.08,29.85,14,3,18,0.00
2013-5-2,91.1,68.2,46.9,47.2,38.9,23.9,80,42,10,30.15,30.06,10,2,15,0.00
2013-5-3,87.9,66.2,47.9,51.6,44.0,35.3,77,49,19,30.08,29.80,9,2,12,0.00
2013-5-4,86.5,62.9,48.3,56.4,49.0,44.3,89,65,26,29.80,29.57,12,2,16,0.00
2013-5-5,63.6,58.4,53.8,51.3,50.1,49.1,87,74,62,29.83,29.63,11,3,18,0.00
2013-5-6,69.0,59.9,52.6,53.6,51.3,48.7,88,74,53,29.98,29.82,14,2,16,0.00
2013-5-7,69.9,60.1,52.1,56.0,52.4,49.8,93,77,54,30.05,29.97,13,3,20,0.00
2013-5-8,62.7,54.3,50.1,54.2,50.4,48.4,95,87,73,30.14,30.03,9,4,18,0.00
2013-5-9,66.6,55.9,49.5,54.8,50.5,47.2,95,83,64,30.17,30.08,11,4,14,0.00
2013-5-10,68.9,56.7,50.1,57.5,51.5,48.3,95,84,64,30.18,30.10,13,4,16,0.00
2013-5-11,79.5,59.0,49.2,61.9,52.5,47.6,97,82,51,30.15,30.05,10,2,12,0.00
2013-5-12,75.7,60.2,48.2,61.9,53.0,46.9,97,79,55,30.15,30.01,12,3,16,0.00
2013-5-13,80.6,62.4,48.8,62.8,53.5,47.5,97,76,50,30.09,29.93,12,3,17,0.00
2013-5-14,79.3,63.9,51.4,56.5,50.9,46.8,87,65,43,29.97,29.87,11,4,17,0.00
2013-5-15,77.5,60.1,47.8,55.6,48.2,43.8,89,68,38,30.03,29.96,13,3,15,0.00
2013-5-16,71.5,60.8,53.0,54.9,50.3,46.7,87,70,44,30.01,29.93,21,5,23,0.00
2013-5-17,70.3,58.6,46.7,50.2,46.8,42.1,92,68,37,30.07,29.96,14,4,15,0.00
2013-5-18,81.7,63.1,45.0,52.9,46.6,42.1,92,60,32,30.13,30.04,14,4,23,0.00
2013-5-19,83.4,67.2,50.9,53.0,46.2,40.8,78,51,24,30.13,29.97,14,3,17,0.00
2013-5-20,88.1,66.1,51.4,54.1,47.5,33.8,87,58,15,30.00,29.90,14,3,18,0.00
2013-5-21,74.4,60.5,49.2,48.2,43.0,33.0,92,57,23,30.00,29.90,17,5,25,0.00
2013-5-22,69.1,57.6,46.7,42.8,35.2,29.7,63,44,24,30.04,29.89,19,7,23,0.00
2013-5-23,73.6,58.0,44.6,47.9,41.8,38.4,81,57,31,30.01,29.91,13,3,18,0.00
2013-5-24,74.8,58.0,42.8,48.4,43.6,38.9,88,62,32,30.00,29.90,12,3,17,0.00
2013-5-25,72.7,58.4,45.5,50.7,46.1,41.7,89,66,39,30.03,29.95,15,3,17,0.00
2013-5-26,72.0,60.3,50.4,54.5,49.8,47.1,93,71,45,30.11,30.02,16,4,24,0.00
2013-5-27,63.1,56.5,50.0,56.8,51.8,46.4,95,85,70,30.11,29.99,13,3,17,0.20
2013-5-28,73.0,61.9,55.2,58.9,54.7,50.5,99,80,55,30.00,29.91,11,3,15,0.04
2013-5-29,76.5,64.5,55.5,56.7,52.9,48.4,86,68,42,29.96,29.87,13,4,16,0.00
2013-5-30,81.9,63.4,46.8,53.3,47.7,43.4,89,61,31,29.99,29.91,11,2,15,0.00
2013-5-31,88.6,67.9,49.9,55.0,48.6,44.5,82,55,23,30.01,29.89,11,3,14,0.00
2013-6-1,91.1,72.2,53.0,58.2,50.7,46.2,80,51,26,29.93,29.76,9,2,16,0.00
2013-6-2,79.7,65.5,52.4,54.4,50.3,46.7,85,61,36,29.78,29.63,10,3,15,0.00
2013-6-3,67.7,57.8,50.3,53.8,50.8,47.0,91,79,61,29.89,29.70,13,4,17,0.00
2013-6-4,63.1,56.4,53.2,53.5,51.2,50.0,90,83,69,29.98,29.87,13,4,15,0.00
2013-6-5,68.2,57.8,51.8,54.6,51.3,49.2,91,80,61,30.00,29.92,13,4,14,0.00
2013-6-6,71.9,57.0,50.5,56.4,51.3,48.2,94,83,56,29.96,29.85,12,3,14,0.00
2013-6-7,85.9,63.9,50.7,61.6,53.8,49.2,96,74,41,29.89,29.70,10,2,13,0.00
2013-6-8,86.2,66.8,55.7,61.9,55.2,51.1,90,69,42,29.84,29.70,14,3,15,0.00
2013-6-9,64.6,58.5,55.7,55.0,53.9,52.8,93,85,71,29.90,29.84,11,4,17,0.00
2013-6-10,63.5,58.8,55.0,56.5,54.1,52.4,95,85,72,29.96,29.80,10,3,13,0.08
2013-6-11,77.2,64.5,55.8,58.8,54.1,49.4,89,71,47,29.98,29.87,12,2,14,0.00
2013-6-12,85.6,65.3,46.5,51.9,44.6,25.9,92,55,12,29.98,29.89,14,3,19,0.00
2013-6-13,85.4,66.7,47.3,49.8,45.0,41.2,84,50,22,30.09,29.98,17,3,22,0.00
2013-6-14,85.2,67.1,51.6,52.3,47.5,39.1,85,54,20,30.00,29.80,12,4,16,0.00
2013-6-15,77.4,60.3,47.4,54.4,50.0,44.9,92,71,42,29.98,29.83,12,3,17,0.00
2013-6-16,86.2,65.9,48.2,55.8,49.6,45.2,95,61,27,30.06,29.97,14,4,20,0.00
2013-6-17,79.6,64.6,51.7,56.0,52.1,47.9,88,67,42,30.08,29.99,18,4,21,0.00
2013-6-18,72.7,62.2,51.0,52.0,49.6,44.9,92,66,40,30.01,29.93,21,4,22,0.00
2013-6-19,79.0,64.7,50.6,50.6,46.7,39.2,81,55,26,30.05,29.97,14,3,18,0.00
2013-6-20,82.5,66.2,49.7,50.7,47.1,44.3,83,54,28,30.01,29.89,14,3,17,0.00
2013-6-21,85.5,66.4,49.2,52.9,48.5,42.9,88,58,23,29.97,29.87,12,3,15,0.00
2013-6-22,87.5,70.5,52.0,54.0,49.6,43.1,82,52,23,29.92,29.80,12,3,17,0.00
2013-6-23,67.6,61.2,55.7,59.9,56.4,52.5,92,85,73,29.86,29.80,13,4,16,0.00
2013-6-24,62.7,58.7,56.0,58.4,56.1,53.9,96,91,85,29.90,29.79,7,2,10,0.18
2013-6-25,64.5,61.7,59.3,63.6,60.8,57.9,99,97,95,29.98,29.87,9,2,11,1.55
2013-6-26,79.3,67.4,60.8,66.3,62.2,58.9,98,85,58,30.05,29.96,10,2,12,0.05
2013-6-27,89.7,71.7,57.9,65.8,60.6,56.7,97,72,41,30.08,29.99,9,2,11,0.00
2013-6-28,92.8,76.7,59.2,66.3,61.3,55.7,92,63,41,30.02,29.86,10,2,13,0.00
2013-6-29,98.4,79.4,59.9,64.8,59.2,53.6,82,53,29,29.91,29.76,10,2,13,0.00
2013-6-30,87.3,73.2,57.5,63.5,57.7,52.7,85,61,39,29.83,29.73,10,3,13,0.00
2013-7-1,94.5,71.2,55.4,64.4,57.5,52.1,90,66,35,29.83,29.78,11,2,14,0.00
2013-7-2,89.7,69.9,58.3,63.2,58.0,55.2,91,69,40,29.92,29.80,10,3,16,0.00
2013-7-3,84.6,68.8,57.7,64.7,58.3,55.3,93,72,46,29.91,29.76,16,3,16,0.00
2013-7-4,97.3,76.8,61.2,63.3,56.8,43.1,83,55,17,29.81,29.64,13,3,22,0.00
2013-7-5,81.3,66.1,54.2,57.9,52.7,48.9,86,64,44,29.74,29.67,12,5,15,0.00
2013-7-6,74.8,59.4,52.7,58.0,52.5,49.5,92,79,55,29.79,29.73,11,2,15,0.00
2013-7-7,73.5,59.5,52.7,58.3,53.2,50.4,94,81,57,29.87,29.79,11,3,15,0.00
2013-7-8,77.0,59.4,52.4,59.8,53.4,50.4,94,82,53,29.98,29.87,10,2,12,0.00
2013-7-9,89.2,64.4,50.1,59.9,53.6,48.8,97,73,36,30.04,29.92,9,3,12,0.00
2013-7-10,74.3,58.4,50.2,57.1,51.8,48.5,95,81,50,29.99,29.90,13,3,15,0.00
2013-7-11,70.4,56.2,50.1,55.8,51.4,48.4,95,85,58,29.95,29.87,12,3,15,0.00
2013-7-12,74.6,58.9,52.4,57.8,52.3,49.9,93,80,52,29.95,29.86,12,3,14,0.00
2013-7-13,79.5,61.3,48.1,58.0,52.4,46.1,95,75,46,29.95,29.89,10,2,14,0.00
2013-7-14,73.4,58.9,52.1,56.5,52.4,50.1,94,81,54,30.00,29.89,11,3,14,0.00
2013-7-15,65.8,55.1,49.6,54.5,51.0,48.0,95,87,66,29.93,29.85,11,3,14,0.00
2013-7-16,66.5,58.3,53.5,57.5,53.5,51.1,93,84,71,30.02,29.87,10,3,13,0.00
2013-7-17,74.6,60.8,52.3,59.8,54.7,50.4,96,82,56,30.10,30.02,13,3,14,0.00
2013-7-18,75.6,61.6,53.2,59.1,54.6,51.3,97,80,53,30.06,29.93,12,3,16,0.00
2013-7-19,81.0,61.5,52.0,61.0,53.8,50.5,96,79,47,29.95,29.81,13,3,16,0.00
2013-7-20,82.2,60.5,51.7,60.0,53.2,49.8,96,80,46,29.85,29.73,10,2,14,0.00
2013-7-21,77.0,61.0,52.8,58.2,53.0,49.9,94,77,49,29.90,29.77,12,3,14,0.00
2013-7-22,83.5,64.1,52.6,61.1,55.6,50.2,93,76,46,29.97,29.90,14,2,15,0.00
2013-7-23,75.5,64.8,57.6,59.9,56.6,54.5,92,76,56,30.00,29.94,8,2,12,0.00
2013-7-24,79.6,63.4,53.9,59.8,55.1,52.4,96,77,48,29.99,29.90,12,3,15,0.00
2013-7-25,74.1,59.9,52.4,57.1,53.5,50.7,95,81,54,30.03,29.92,11,3,15,0.00
2013-7-26,73.4,58.6,52.1,59.0,53.2,50.4,95,84,59,30.10,30.01,14,3,17,0.00
2013-7-27,73.3,58.4,52.2,58.3,53.3,50.5,95,84,58,30.04,29.87,11,3,15,0.00
2013-7-28,70.1,57.0,51.8,57.9,52.5,50.1,96,86,63,29.89,29.81,13,3,16,0.00
2013-7-29,71.1,58.5,53.9,56.7,52.8,51.0,92,82,60,30.02,29.84,13,3,17,0.00
2013-7-30,70.6,57.8,52.9,57.3,53.0,50.6,94,85,61,30.12,30.03,11,3,14,0.00
2013-7-31,74.0,60.8,52.5,57.9,53.8,51.1,96,80,55,30.09,29.96,11,3,15,0.00
2013-8-1,77.4,63.7,50.5,55.6,53.0,48.2,93,71,45,30.04,29.93,18,4,18,0.00
2013-8-2,82.0,63.7,49.0,56.6,52.0,46.5,95,70,40,29.97,29.86,13,3,14,0.00
2013-8-3,74.8,58.4,49.6,58.0,52.3,47.1,96,82,55,29.97,29.90,13,3,16,0.00
2013-8-4,69.7,57.1,50.8,56.7,52.2,49.3,95,85,60,30.01,29.95,11,3,14,0.00
2013-8-5,69.4,57.5,51.7,57.1,52.0,49.4,93,83,61,30.03,29.94,11,3,14,0.00
2013-8-6,70.7,58.7,52.0,56.4,52.8,50.3,94,82,60,30.04,29.98,16,4,18,0.00
2013-8-7,68.3,60.7,55.4,57.2,54.9,52.8,91,82,66,30.10,30.03,13,3,15,0.00
2013-8-8,70.2,60.6,54.1,58.2,54.6,51.5,93,82,64,30.03,29.94,13,3,17,0.00
2013-8-9,70.1,58.7,52.9,58.5,53.9,51.4,95,85,63,29.99,29.92,12,3,15,0.00
2013-8-10,72.5,61.5,55.3,58.9,55.5,53.0,93,82,60,30.05,29.98,9,3,15,0.00
2013-8-11,73.4,60.2,53.9,59.2,55.0,52.6,96,85,59,30.03,29.92,12,3,15,0.00
2013-8-12,79.0,60.0,52.4,59.1,53.8,51.2,96,83,45,30.00,29.93,10,3,14,0.00
2013-8-13,85.6,65.5,54.1,58.4,54.7,52.4,94,72,37,29.99,29.88,11,2,14,0.00
2013-8-14,87.4,66.7,51.2,60.6,54.8,48.3,92,70,34,29.97,29.85,15,4,19,0.00
2013-8-15,86.2,68.6,56.3,66.5,60.4,54.0,93,78,48,29.94,29.89,13,3,13,0.00
2013-8-16,84.9,67.2,56.4,65.2,59.0,54.5,97,78,48,29.97,29.91,12,3,17,0.00
2013-8-17,86.2,68.6,54.0,62.0,56.9,52.0,94,70,39,29.97,29.81,12,3,17,0.00
2013-8-18,88.7,70.9,54.9,65.1,57.6,51.8,91,66,40,29.88,29.75,8,2,11,0.00
2013-8-19,83.4,68.8,58.7,62.0,57.4,54.7,91,70,40,29.88,29.78,9,2,12,0.00
2013-8-20,79.6,63.7,58.4,62.0,58.0,55.8,94,83,52,29.90,29.82,13,3,17,0.00
2013-8-21,73.2,62.2,55.8,58.8,55.3,52.2,91,80,56,29.95,29.86,10,3,14,0.00
2013-8-22,71.9,60.8,55.0,57.9,54.6,52.3,93,81,59,29.98,29.89,16,3,17,0.00
2013-8-23,74.4,63.0,55.9,58.5,55.6,53.3,92,78,56,29.92,29.78,12,3,15,0.00
2013-8-24,80.5,64.4,52.4,60.5,55.8,50.4,95,76,49,29.87,29.81,11,4,16,0.00
2013-8-25,75.8,65.9,59.0,63.3,59.5,56.0,92,81,63,29.93,29.86,12,4,18,0.00
2013-8-26,82.1,66.4,57.7,60.9,57.2,53.7,95,75,41,30.00,29.88,10,3,15,0.00
2013-8-27,85.7,66.2,51.8,59.8,54.9,49.2,93,71,34,29.89,29.80,11,3,15,0.00
2013-8-28,80.9,65.7,55.6,64.7,59.6,54.4,97,83,56,29.93,29.84,14,3,14,0.00
2013-8-29,81.9,65.6,59.8,65.5,61.0,58.3,96,86,56,30.05,29.93,9,2,13,0.00
2013-8-30,90.6,71.4,56.9,64.4,59.9,54.8,95,71,39,30.03,29.89,11,2,14,0.00
2013-8-31,81.8,64.7,52.6,61.7,56.2,50.2,95,76,47,29.96,29.87,14,3,17,0.00
2013-9-1,78.4,65.0,53.7,61.7,57.0,52.3,96,78,50,29.94,29.86,11,3,15,0.00
2013-9-2,80.1,68.5,59.9,63.8,60.9,57.8,94,78,56,29.94,29.87,14,4,18,0.00
2013-9-3,80.7,67.0,52.9,60.0,56.2,50.8,95,72,38,29.98,29.89,13,3,15,0.00
2013-9-4,82.0,67.3,52.4,60.3,56.4,50.3,94,71,43,30.02,29.90,10,2,15,0.00
2013-9-5,84.7,69.1,54.9,58.0,55.0,51.9,92,65,37,29.99,29.91,11,2,14,0.00
2013-9-6,92.6,72.6,53.5,57.8,51.4,46.6,88,54,21,29.97,29.82,12,2,14,0.00
2013-9-7,95.0,72.6,54.0,54.4,50.7,39.3,84,52,15,29.87,29.78,13,2,16,0.00
2013-9-8,85.7,65.4,53.8,59.1,54.2,51.0,96,72,35,29.88,29.75,9,2,13,0.00
2013-9-9,89.5,64.5,51.2,60.3,54.4,49.2,95,74,34,29.81,29.69,11,3,16,0.00
2013-9-10,73.7,62.4,56.7,61.6,58.2,54.7,95,87,64,29.90,29.73,15,3,18,0.00
2013-9-11,69.8,64.1,61.3,60.3,59.4,58.7,94,85,71,30.00,29.90,9,2,12,0.00
2013-9-12,77.2,64.7,57.1,63.1,58.9,55.0,94,83,60,29.98,29.87,13,3,14,0.00
2013-9-13,77.4,62.4,55.2,60.8,56.2,54.0,97,82,50,29.90,29.73,13,3,17,0.00
2013-9-14,77.2,61.5,54.2,60.2,55.6,52.7,96,83,54,29.82,29.70,12,4,16,0.00
2013-9-15,78.1,62.8,51.8,59.7,55.8,50.4,96,80,51,29.85,29.76,14,4,18,0.00
2013-9-16,85.7,65.7,54.1,62.1,56.4,52.4,97,76,37,29.89,29.74,12,3,15,0.01
2013-9-17,80.7,66.5,52.5,56.0,52.1,49.4,94,64,36,29.88,29.79,15,4,19,0.01
2013-9-18,83.4,68.0,58.1,51.1,48.6,42.8,69,53,25,29.90,29.79,13,4,16,0.00
2013-9-19,87.4,64.7,48.7,52.3,48.5,41.5,88,62,21,29.86,29.74,10,2,16,0.00
2013-9-20,75.9,60.5,43.7,61.8,54.4,41.5,94,82,54,29.84,29.76,16,4,20,0.01
2013-9-21,70.0,62.4,56.4,62.1,57.0,52.2,97,84,55,29.89,29.78,18,4,23,0.59
2013-9-22,74.8,61.8,48.6,55.3,52.1,46.6,95,73,46,30.00,29.89,13,2,16,0.00
2013-9-23,83.8,66.0,51.7,61.5,55.5,48.9,91,72,43,30.02,29.90,12,2,18,0.00
2013-9-24,78.7,64.6,55.0,55.9,52.2,47.7,94,68,35,29.97,29.87,14,4,21,0.00
2013-9-25,73.1,61.2,49.4,49.3,45.3,39.6,87,59,31,29.94,29.81,18,4,21,0.00
2013-9-26,78.4,63.3,49.4,49.1,41.5,34.6,72,48,22,30.00,29.85,11,4,14,0.00
2013-9-27,80.3,63.0,47.2,47.0,42.0,33.9,84,53,19,30.09,30.00,13,2,16,0.00
2013-9-28,81.5,61.7,46.0,56.2,46.8,36.8,88,65,22,30.09,29.99,9,2,15,0.00
2013-9-29,70.5,61.9,54.9,62.3,58.3,52.0,96,88,74,30.09,30.04,14,3,15,0.01
2013-9-30,72.8,63.5,53.9,65.6,59.8,49.3,97,88,73,30.05,29.96,12,3,15,0.06
2013-10-1,81.0,62.0,45.7,53.0,48.2,43.5,93,65,31,30.02,29.90,9,2,10,0.01
2013-10-2,79.5,62.7,50.0,51.1,45.7,33.5,88,58,19,30.02,29.91,15,3,17,0.00
2013-10-3,75.8,64.6,50.5,41.9,33.6,18.7,70,36,12,30.09,29.96,19,5,21,0.00
2013-10-4,82.4,71.8,60.2,34.3,25.7,19.9,36,19,10,30.08,30.00,18,5,22,0.00
2013-10-5,86.4,64.8,44.6,39.7,34.4,27.3,71,38,12,30.19,30.08,10,1,13,0.00
2013-10-6,86.6,63.7,43.5,41.7,36.5,28.9,76,42,13,30.13,29.99,9,1,11,0.00
2013-10-7,85.4,62.3,44.8,49.7,40.5,26.5,75,50,12,30.00,29.85,10,1,13,0.00
2013-10-8,78.0,60.0,44.5,48.9,44.6,40.8,94,61,30,29.92,29.71,11,2,13,0.00
2013-10-9,73.5,60.3,47.6,46.7,43.0,41.4,82,56,33,29.76,29.61,15,2,16,0.00
2013-10-10,72.8,56.6,46.2,51.4,45.3,40.2,92,68,36,30.01,29.75,12,2,16,0.00
2013-10-11,67.0,52.1,45.0,52.1,47.2,42.8,96,85,53,30.10,29.98,9,2,15,0.00
2013-10-12,69.3,53.4,40.7,52.1,45.8,39.3,97,78,51,30.02,29.88,11,2,13,0.01
2013-10-13,75.3,57.1,42.2,49.4,44.8,39.6,93,68,32,30.07,29.93,11,2,16,0.00
2013-10-14,81.6,59.1,41.7,46.6,41.1,36.7,92,59,21,30.13,29.99,13,1,13,0.00
2013-10-15,85.6,60.5,41.4,45.0,37.0,30.4,85,50,14,30.05,29.93,9,1,14,0.00
2013-10-16,85.3,60.6,41.1,42.0,36.4,30.3,81,47,14,30.09,29.99,8,1,13,0.00
2013-10-17,84.3,59.6,42.3,47.1,38.5,32.6,87,52,16,30.09,29.95,9,2,12,0.00
2013-10-18,78.5,55.9,40.9,50.1,44.2,39.1,99,71,27,30.06,29.98,9,2,11,0.01
2013-10-19,86.3,57.8,40.0,49.6,43.1,37.6,93,66,18,30.09,29.97,7,1,10,0.00
2013-10-20,77.7,54.2,41.9,51.3,45.6,40.3,96,77,34,30.03,29.90,8,2,12,0.00
2013-10-21,72.5,53.6,46.1,53.2,48.0,44.7,97,84,49,30.02,29.91,7,2,9,0.00
2013-10-22,77.3,53.4,44.6,54.5,47.8,43.5,97,84,43,30.03,29.92,12,2,12,0.00
2013-10-23,72.4,51.9,44.7,53.4,47.5,43.6,97,87,49,29.99,29.89,8,2,13,0.01
2013-10-24,66.9,51.9,46.2,51.6,47.7,45.1,96,87,57,30.11,29.97,8,2,11,0.00
2013-10-25,70.4,52.9,41.6,53.0,46.4,39.9,100,81,51,30.19,30.08,8,1,10,0.01
2013-10-26,82.9,55.6,38.7,51.3,45.0,36.8,95,73,28,30.16,30.01,8,1,12,0.00
2013-10-27,63.0,51.9,47.2,51.5,47.2,42.4,97,85,61,30.03,29.64,14,3,16,0.00
2013-10-28,66.2,53.6,40.9,48.2,44.0,37.9,95,72,46,29.83,29.66,9,2,12,0.00
2013-10-29,65.2,53.3,45.7,49.4,46.1,42.9,92,78,52,30.06,29.82,10,2,12,0.00
2013-10-30,67.9,51.4,38.6,50.1,43.4,37.1,96,77,48,30.16,30.05,10,1,13,0.00
2013-10-31,76.1,54.2,38.7,48.6,42.6,36.1,93,69,35,30.19,30.06,10,1,13,0.00
2013-11-1,80.2,57.5,41.1,49.3,43.9,38.6,92,65,29,30.16,30.01,8,1,11,0.00
2013-11-2,74.6,56.7,42.2,55.2,45.8,39.1,94,69,44,30.03,29.88,11,2,16,0.00
2013-11-3,65.3,54.5,42.7,40.8,35.2,29.8,73,50,28,30.06,29.93,13,4,20,0.00
2013-11-4,71.9,54.1,35.7,38.4,33.5,27.2,89,53,19,30.10,29.93,11,3,17,0.00
2013-11-5,77.8,58.4,42.5,44.8,39.2,35.1,78,53,22,30.21,30.08,9,1,12,0.00
2013-11-6,77.0,58.5,44.2,47.3,41.3,37.0,86,57,26,30.27,30.16,7,1,11,0.00
2013-11-7,75.1,58.4,48.5,51.8,44.4,39.1,90,64,29,30.17,30.06,10,2,13,0.00
2013-11-8,75.4,54.9,42.5,53.9,46.6,39.9,96,78,36,30.09,29.94,14,2,17,0.00
2013-11-9,75.2,53.6,38.7,51.1,44.7,37.3,96,76,32,30.06,29.94,9,1,18,0.01
2013-11-10,67.7,52.5,43.1,53.6,47.6,41.2,96,85,57,30.12,30.02,11,2,14,0.01
2013-11-11,66.6,54.4,45.5,51.6,48.1,43.3,93,81,55,30.19,30.07,6,1,10,0.00
2013-11-12,74.1,58.9,50.0,52.4,49.6,46.8,89,73,43,30.28,30.14,7,1,12,0.00
2013-11-13,79.1,55.7,43.2,55.4,48.6,41.3,95,80,42,30.26,30.09,9,1,11,0.00
2013-11-14,65.0,52.4,47.1,55.1,48.6,38.5,98,88,64,30.11,29.88,5,1,8,0.01
2013-11-15,67.6,52.7,40.5,45.1,40.6,36.6,88,66,34,29.89,29.72,8,2,12,0.00
2013-11-16,68.0,51.7,37.6,49.2,42.5,35.1,92,74,44,29.92,29.77,10,2,18,0.00
2013-11-17,63.5,49.3,39.0,51.5,44.6,37.4,97,85,62,30.09,29.92,6,1,8,0.01
2013-11-18,58.4,47.8,36.4,48.7,43.5,34.5,96,86,68,30.17,30.08,11,2,12,0.00
2013-11-19,56.9,54.2,50.5,56.0,52.8,48.3,97,95,89,30.10,29.93,11,2,13,0.68
2013-11-20,59.0,55.4,49.8,57.4,54.4,48.7,98,97,90,29.92,29.83,10,2,12,0.57
2013-11-21,63.7,56.5,49.8,49.9,31.9,14.9,100,51,16,30.00,29.89,23,5,32,0.01
2013-11-22,75.0,65.8,57.1,17.5,7.2,1.0,20,10,6,30.02,29.89,22,7,36,0.00
2013-11-23,66.6,58.2,40.9,38.5,25.6,9.1,68,33,11,30.11,29.95,13,3,18,0.00
2013-11-24,66.1,47.4,33.1,46.5,37.5,29.4,89,71,34,30.27,30.10,8,1,11,0.00
2013-11-25,66.6,48.1,33.0,46.1,39.9,31.2,100,76,43,30.34,30.24,7,1,7,0.00
2013-11-26,63.9,49.1,37.6,46.0,40.8,35.4,94,75,48,30.29,30.05,6,1,9,0.00
2013-11-27,67.6,50.8,36.7,47.7,42.2,34.8,94,75,45,30.05,29.83,10,1,12,0.00
2013-11-28,71.9,52.0,39.5,47.1,42.0,37.3,95,72,37,30.07,29.88,7,1,9,0.00
2013-11-29,70.2,51.3,37.6,48.7,42.5,35.3,93,75,40,30.22,30.08,7,1,10,0.00
2013-11-30,72.0,51.9,41.1,50.4,43.7,38.8,93,77,38,30.29,30.18,7,1,9,0.00
2013-12-1,73.4,52.3,37.2,50.1,43.3,35.3,95,75,39,30.35,30.22,6,1,9,0.01
2013-12-2,66.9,50.7,35.6,52.6,44.7,33.6,97,82,52,30.24,29.95,11,2,18,0.01
2013-12-3,56.2,50.0,41.5,51.1,34.9,27.8,93,59,34,29.96,29.83,13,4,19,0.00
2013-12-4,55.0,41.2,29.6,33.0,28.5,21.2,89,64,27,30.11,29.96,6,1,9,0.00
2013-12-5,52.9,36.9,24.4,33.9,27.2,21.8,92,71,33,30.17,30.10,7,1,11,0.00
2013-12-6,47.8,37.6,24.8,46.4,32.0,22.2,95,82,43,30.20,29.90,10,2,18,0.24
2013-12-7,46.6,39.1,30.0,42.6,29.9,23.2,95,72,42,30.28,29.93,19,3,24,0.02
2013-12-8,49.0,35.6,26.8,30.3,25.7,22.9,91,70,37,30.33,30.24,6,1,8,0.16
2013-12-9,50.6,35.4,23.0,30.8,24.5,20.2,91,68,35,30.44,30.32,9,2,13,0.04
2013-12-10,55.4,38.0,24.5,33.1,27.4,21.5,92,69,35,30.43,30.22,5,1,8,0.06
2013-12-11,59.5,40.7,27.8,36.7,31.0,25.2,92,71,41,30.26,30.18,6,0,8,0.00
2013-12-12,62.0,42.5,28.1,37.7,32.4,26.0,93,71,35,30.29,30.17,6,1,7,0.00
2013-12-13,65.8,43.7,28.9,40.1,33.8,26.6,93,72,33,30.35,30.24,5,1,6,0.00
2013-12-14,64.7,43.9,29.8,43.1,36.4,27.7,94,78,43,30.41,30.31,11,1,13,0.00
2013-12-15,65.3,43.9,29.2,44.5,35.6,27.6,96,76,39,30.39,30.24,5,0,6,0.01
2013-12-16,67.1,46.9,32.7,43.9,37.1,30.5,94,72,39,30.26,30.12,8,1,9,0.00
2013-12-17,67.1,47.2,34.3,44.7,38.2,32.2,93,74,41,30.20,30.05,4,0,6,0.00
2013-12-18,59.3,45.8,35.5,48.7,40.9,33.4,94,84,53,30.05,29.77,9,2,11,0.00
2013-12-19,61.9,52.5,43.0,40.5,29.2,13.7,78,47,20,29.95,29.74,22,5,24,0.01
2013-12-20,67.2,48.9,34.3,37.1,29.1,21.7,72,50,18,30.02,29.92,9,2,14,0.00
2013-12-21,68.5,52.2,40.6,50.3,43.6,35.4,92,74,45,30.08,29.97,6,1,8,0.00
2013-12-22,66.8,49.0,36.9,47.0,40.6,35.0,95,76,45,30.30,30.08,8,1,11,0.00
2013-12-23,67.5,48.6,33.0,46.7,39.6,31.2,95,74,42,30.41,30.29,7,1,9,0.00
2013-12-24,72.0,50.4,37.3,48.7,41.1,35.0,93,73,40,30.36,30.19,5,1,8,0.00
2013-12-25,68.3,46.7,31.5,44.0,37.7,29.4,95,75,39,30.32,30.20,4,0,6,0.00
2013-12-26,68.1,46.5,30.5,44.7,36.2,28.1,93,71,36,30.27,30.16,5,0,7,0.01
2013-12-27,57.3,42.8,32.0,40.0,35.1,29.5,92,76,49,30.25,30.14,4,0,7,0.00
2013-12-28,71.5,45.8,28.2,43.5,34.2,26.1,93,69,30,30.17,30.02,5,0,7,0.01
2013-12-29,65.2,47.0,31.5,37.2,32.3,27.7,88,61,27,30.20,30.08,10,1,11,0.00
2013-12-30,64.6,45.8,30.7,41.8,34.0,27.2,89,66,37,30.27,30.18,8,1,9,0.00
2013-12-31,64.7,45.3,34.4,44.8,37.6,32.3,93,77,38,30.29,30.15,7,1,7,0.00
2014-1-1,68.2,45.5,29.3,45.7,36.3,27.2,94,75,31,30.22,30.12,5,1,6,0.00
2014-1-2,67.0,48.3,33.4,44.0,37.5,31.5,94,70,38,30.20,30.05,4,0,5,0.00